When you browse on this site, cookies collect data to enhance your experience and personalize the content and advertising you see.
Visit our Privacy Policy to learn more. By continuing to use the site, you agree to this use of cookies and data.
  • In Deutschland
  • Länderverzeichnis
  • Für 7 Tage
  • Wassertemperatur
  • Wetterkarte
  • Widgets
  • user-avatar
    Anmelden

    Stündliche Wetter Dangriga

    Heute, 22 Januar, Mittwoch

    Zeit Temperatur Niederschläge Wind Luftdruck Luftfeuchtigkeit
    00:00 +19°C° 0 mm 4 m/S 766 mmHg 81%
    01:00 +19°C° 0 mm 4 m/S 765 mmHg 82%
    02:00 +19°C° 0 mm 4 m/S 764 mmHg 82%
    03:00 +17°C° 0 mm 5 m/S 764 mmHg 83%
    04:00 +18°C° 0 mm 4 m/S 764 mmHg 85%
    05:00 +18°C° 0 mm 4 m/S 764 mmHg 87%
    06:00 +17°C° 0 mm 5 m/S 764 mmHg 92%
    07:00 +20°C° 0 mm 4 m/S 764 mmHg 83%
    08:00 +22°C° 0 mm 4 m/S 765 mmHg 74%
    09:00 +25°C° 0 mm 3 m/S 765 mmHg 65%
    10:00 +26°C° 0 mm 3 m/S 765 mmHg 60%
    11:00 +28°C° 0 mm 3 m/S 764 mmHg 54%
    12:00 +29°C° 0 mm 3 m/S 764 mmHg 49%
    13:00 +29°C° 0 mm 3 m/S 763 mmHg 53%
    14:00 +28°C° 0 mm 4 m/S 762 mmHg 56%
    15:00 +27°C° 0 mm 4 m/S 761 mmHg 59%
    16:00 +26°C° 0 mm 3 m/S 762 mmHg 69%
    17:00 +24°C° 0 mm 3 m/S 762 mmHg 79%
    18:00 +21°C° 0 mm 3 m/S 762 mmHg 89%
    19:00 +20°C° 0 mm 3 m/S 762 mmHg 90%
    20:00 +20°C° 0 mm 2 m/S 763 mmHg 91%
    21:00 +19°C° 0 mm 2 m/S 763 mmHg 92%
    22:00 +19°C° 0 mm 2 m/S 763 mmHg 92%
    23:00 +19°C° 0 mm 2 m/S 762 mmHg 92%

    Morgen, 23 Januar, Donnerstag

    Zeit Temperatur Niederschläge Wind Luftdruck Luftfeuchtigkeit
    00:00 +19°C° 0 mm 2 m/S 762 mmHg 91%
    01:00 +19°C° 0 mm 2 m/S 761 mmHg 91%
    02:00 +19°C° 0 mm 2 m/S 761 mmHg 90%
    03:00 +20°C° 0 mm 2 m/S 760 mmHg 89%
    04:00 +20°C° 0.2 mm 3 m/S 760 mmHg 87%
    05:00 +21°C° 0.2 mm 3 m/S 760 mmHg 86%
    06:00 +21°C° 0.2 mm 3 m/S 760 mmHg 85%
    07:00 +22°C° 0.1 mm 3 m/S 761 mmHg 86%
    08:00 +23°C° 0.1 mm 4 m/S 761 mmHg 87%
    09:00 +25°C° 0.1 mm 4 m/S 762 mmHg 88%
    10:00 +25°C° 0.2 mm 4 m/S 761 mmHg 90%
    11:00 +25°C° 0.2 mm 3 m/S 761 mmHg 93%
    12:00 +25°C° 0.2 mm 3 m/S 760 mmHg 95%
    13:00 +26°C° 0.2 mm 3 m/S 760 mmHg 92%
    14:00 +26°C° 0.2 mm 3 m/S 759 mmHg 88%
    15:00 +27°C° 0.2 mm 2 m/S 758 mmHg 85%
    16:00 +26°C° 0.1 mm 3 m/S 758 mmHg 89%
    17:00 +25°C° 0.1 mm 3 m/S 759 mmHg 94%
    18:00 +24°C° 0.1 mm 3 m/S 759 mmHg 98%
    19:00 +23°C° 0.1 mm 4 m/S 760 mmHg 98%
    20:00 +23°C° 0.1 mm 4 m/S 760 mmHg 98%
    21:00 +23°C° 0.1 mm 4 m/S 761 mmHg 98%
    22:00 +23°C° 0.2 mm 4 m/S 761 mmHg 98%
    23:00 +22°C° 0.2 mm 5 m/S 761 mmHg 98%

    übermorgen, 24 Januar, Freitag

    Zeit Temperatur Niederschläge Wind Luftdruck Luftfeuchtigkeit
    00:00 +22°C° 0.2 mm 5 m/S 761 mmHg 99%
    01:00 +22°C° 0.1 mm 4 m/S 761 mmHg 98%
    02:00 +22°C° 0.1 mm 4 m/S 760 mmHg 98%
    03:00 +22°C° 0.1 mm 3 m/S 760 mmHg 98%
    04:00 +22°C° 0.1 mm 3 m/S 760 mmHg 98%
    05:00 +22°C° 0.1 mm 3 m/S 760 mmHg 98%
    06:00 +22°C° 0.1 mm 3 m/S 761 mmHg 98%
    07:00 +24°C° 0.2 mm 3 m/S 761 mmHg 96%
    08:00 +25°C° 0.2 mm 2 m/S 762 mmHg 95%
    09:00 +26°C° 0.2 mm 2 m/S 763 mmHg 93%
    10:00 +26°C° 0.6 mm 2 m/S 762 mmHg 91%
    11:00 +27°C° 0.6 mm 2 m/S 762 mmHg 89%
    12:00 +27°C° 0.6 mm 2 m/S 761 mmHg 88%
    13:00 +27°C° 0.5 mm 3 m/S 761 mmHg 90%
    14:00 +26°C° 0.5 mm 3 m/S 760 mmHg 92%
    15:00 +26°C° 0.5 mm 4 m/S 760 mmHg 94%
    16:00 +25°C° 0.1 mm 4 m/S 760 mmHg 96%
    17:00 +23°C° 0.1 mm 4 m/S 761 mmHg 97%
    18:00 +23°C° 0.1 mm 4 m/S 761 mmHg 98%
    19:00 +22°C° 0 mm 3 m/S 761 mmHg 98%
    20:00 +22°C° 0 mm 3 m/S 762 mmHg 98%
    21:00 +21°C° 0 mm 3 m/S 763 mmHg 98%
    22:00 +21°C° 0 mm 3 m/S 762 mmHg 98%
    23:00 +21°C° 0 mm 3 m/S 762 mmHg 98%

    25 Januar, Samstag

    Zeit Temperatur Niederschläge Wind Luftdruck Luftfeuchtigkeit
    00:00 +21°C° 0 mm 3 m/S 762 mmHg 98%
    01:00 +21°C° 0 mm 3 m/S 762 mmHg 98%
    02:00 +21°C° 0 mm 2 m/S 761 mmHg 98%
    03:00 +21°C° 0 mm 2 m/S 761 mmHg 98%
    04:00 +21°C° 0 mm 2 m/S 761 mmHg 97%
    05:00 +21°C° 0 mm 2 m/S 762 mmHg 96%
    06:00 +23°C° 0 mm 2 m/S 762 mmHg 96%
    07:00 +24°C° 0 mm 2 m/S 762 mmHg 91%
    08:00 +25°C° 0 mm 3 m/S 763 mmHg 87%
    09:00 +26°C° 0 mm 3 m/S 764 mmHg 83%
    10:00 +27°C° 0 mm 3 m/S 763 mmHg 78%
    11:00 +27°C° 0 mm 3 m/S 763 mmHg 72%
    12:00 +28°C° 0 mm 3 m/S 763 mmHg 66%
    13:00 +28°C° 0 mm 3 m/S 762 mmHg 63%
    14:00 +29°C° 0 mm 3 m/S 762 mmHg 61%
    15:00 +29°C° 0 mm 3 m/S 761 mmHg 58%
    16:00 +27°C° 0 mm 3 m/S 761 mmHg 67%
    17:00 +25°C° 0 mm 2 m/S 761 mmHg 76%
    18:00 +23°C° 0 mm 2 m/S 761 mmHg 85%
    19:00 +21°C° 0 mm 2 m/S 762 mmHg 86%
    20:00 +21°C° 0 mm 3 m/S 762 mmHg 87%
    21:00 +20°C° 0 mm 3 m/S 762 mmHg 88%
    22:00 +20°C° 0 mm 3 m/S 762 mmHg 88%
    23:00 +20°C° 0 mm 2 m/S 762 mmHg 89%

    26 Januar, Sonntag

    Zeit Temperatur Niederschläge Wind Luftdruck Luftfeuchtigkeit
    00:00 +20°C° 0 mm 2 m/S 762 mmHg 89%
    01:00 +20°C° 0 mm 2 m/S 761 mmHg 89%
    02:00 +20°C° 0 mm 2 m/S 761 mmHg 89%
    03:00 +20°C° 0 mm 2 m/S 761 mmHg 90%
    04:00 +20°C° 0 mm 2 m/S 761 mmHg 90%
    05:00 +20°C° 0 mm 2 m/S 761 mmHg 90%
    06:00 +20°C° 0 mm 2 m/S 761 mmHg 91%
    07:00 +23°C° 0 mm 2 m/S 761 mmHg 82%
    08:00 +25°C° 0 mm 2 m/S 762 mmHg 74%
    09:00 +27°C° 0 mm 2 m/S 762 mmHg 65%
    10:00 +28°C° 0 mm 3 m/S 762 mmHg 63%
    11:00 +29°C° 0 mm 3 m/S 761 mmHg 60%
    12:00 +30°C° 0 mm 3 m/S 761 mmHg 57%
    13:00 +30°C° 0 mm 3 m/S 760 mmHg 57%
    14:00 +30°C° 0 mm 3 m/S 759 mmHg 58%
    15:00 +30°C° 0 mm 3 m/S 758 mmHg 59%
    16:00 +27°C° 0 mm 3 m/S 758 mmHg 69%
    17:00 +25°C° 0 mm 3 m/S 758 mmHg 80%
    18:00 +22°C° 0 mm 3 m/S 758 mmHg 91%
    19:00 +23°C° 0 mm 2 m/S 759 mmHg 92%
    20:00 +21°C° 0 mm 2 m/S 759 mmHg 92%
    21:00 +21°C° 0 mm 2 m/S 760 mmHg 93%
    22:00 +21°C° 0 mm 2 m/S 759 mmHg 93%
    23:00 +20°C° 0 mm 2 m/S 759 mmHg 92%

    27 Januar, Montag

    Zeit Temperatur Niederschläge Wind Luftdruck Luftfeuchtigkeit
    00:00 +21°C° 0 mm 1 m/S 759 mmHg 92%
    01:00 +21°C° 0 mm 2 m/S 759 mmHg 93%
    02:00 +21°C° 0 mm 2 m/S 759 mmHg 93%
    03:00 +21°C° 0 mm 2 m/S 758 mmHg 94%
    04:00 +21°C° 0 mm 2 m/S 759 mmHg 95%
    05:00 +21°C° 0 mm 2 m/S 759 mmHg 95%
    06:00 +21°C° 0 mm 2 m/S 759 mmHg 96%
    07:00 +24°C° 0 mm 2 m/S 760 mmHg 86%
    08:00 +26°C° 0 mm 2 m/S 760 mmHg 76%
    09:00 +29°C° 0 mm 2 m/S 761 mmHg 66%
    10:00 +30°C° 0 mm 2 m/S 760 mmHg 61%
    11:00 +31°C° 0 mm 2 m/S 760 mmHg 57%
    12:00 +32°C° 0 mm 2 m/S 760 mmHg 52%
    13:00 +32°C° 0 mm 2 m/S 759 mmHg 55%
    14:00 +32°C° 0 mm 2 m/S 758 mmHg 58%
    15:00 +32°C° 0 mm 2 m/S 758 mmHg 60%
    16:00 +30°C° 0 mm 2 m/S 758 mmHg 70%
    17:00 +28°C° 0 mm 3 m/S 758 mmHg 79%
    18:00 +26°C° 0 mm 3 m/S 758 mmHg 88%
    19:00 +25°C° 0 mm 3 m/S 759 mmHg 91%
    20:00 +25°C° 0 mm 3 m/S 759 mmHg 93%
    21:00 +24°C° 0 mm 3 m/S 759 mmHg 95%
    22:00 +24°C° 0 mm 3 m/S 759 mmHg 93%
    23:00 +24°C° 0 mm 3 m/S 759 mmHg 91%
    Mehr zeigen